This is the latest recevied weather packets stored in our database for station/object KB2AHZ. If no packets are shown the sender has not sent any weather packets the latest 10 day(s).
| Time | Temp. | Humidity | Pressure | Rain* | Wind** | Luminosity | Snow |
|---|---|---|---|---|---|---|---|
| 1777851720 | 13.89° C | 50% | 1016.4 hPa | 0 mm | - | 15 W/m² | - |
| 1777851416 | 13.89° C | 49% | 1016 hPa | 0 mm | - | 18 W/m² | - |
| 1777851112 | 14.44° C | 48% | 1016.2 hPa | 0 mm | - | 21 W/m² | - |
| 1777850808 | 14.44° C | 46% | 1016.3 hPa | 0 mm | - | 24 W/m² | - |
| 1777850506 | 15° C | 46% | 1016.1 hPa | 0 mm | - | 26 W/m² | - |
| 1777850204 | 15° C | 45% | 1016.5 hPa | 0 mm | - | 28 W/m² | - |
| 1777849900 | 15.56° C | 44% | 1016.2 hPa | 0 mm | - | 30 W/m² | - |
| 1777849597 | 15.56° C | 42% | 1016.5 hPa | 0 mm | - | 32 W/m² | - |
| 1777849294 | 16.11° C | 40% | 1016.1 hPa | 0 mm | - | 34 W/m² | - |
| 1777848992 | 16.11° C | 39% | 1016.5 hPa | 0 mm | - | 36 W/m² | - |
| 1777848691 | 16.11° C | 39% | 1016.3 hPa | 0 mm | - | 37 W/m² | - |
| 1777848389 | 16.67° C | 37% | 1016.4 hPa | 0 mm | - | 39 W/m² | - |
| 1777848087 | 16.67° C | 39% | 1016.2 hPa | 0 mm | - | 40 W/m² | - |
| 1777847785 | 16.67° C | 40% | 1016.6 hPa | 0 mm | - | 41 W/m² | - |
| 1777847480 | 16.67° C | 35% | 1016.5 hPa | 0 mm | - | 43 W/m² | - |
| 1777847178 | 17.22° C | 36% | 1016.4 hPa | 0 mm | - | 44 W/m² | - |
| 1777846875 | 17.22° C | 38% | 1016.4 hPa | 0 mm | - | 46 W/m² | - |
| 1777846574 | 17.78° C | 35% | 1016.4 hPa | 0 mm | - | 96 W/m² | - |
| 1777846271 | 18.33° C | 37% | 1016.5 hPa | 0 mm | - | 77 W/m² | - |
| 1777845968 | 18.33° C | 34% | 1016.4 hPa | 0 mm | - | 221 W/m² | - |
| 1777845664 | 18.33° C | 33% | 1016.6 hPa | 0 mm | - | 235 W/m² | - |
| 1777845361 | 17.78° C | 34% | 1016.6 hPa | 0 mm | - | 254 W/m² | - |
| 1777845057 | 17.78° C | 32% | 1016.6 hPa | 0 mm | - | 273 W/m² | - |
| 1777844756 | 18.33° C | 33% | 1016.5 hPa | 0 mm | - | 290 W/m² | - |
| 1777844452 | 18.33° C | 35% | 1016.7 hPa | 0 mm | - | 309 W/m² | - |
* Rain latest hour (hover to see other rain measurements)
** Current wind speed in m/s (hover to see current wind gust speed)